contact:dominique.lefevre@mio.osupytheas.fr, maurice.libes@osupytheas.fr, didier.mallarino@osupytheas.fr
Project:EMSO http://www.emso-fr.org/EMSO-France
Depth: 2436.0 m
Title:EMSO Ligure Ouest : Data MII capteur CSTAR
DateTime,Latitude,Longitude,Instrument_Serial,Reference_Counts,Signal_Counts,Corrected_Signal_raw_counts,Calculated_Beam_c_inverse_meters,Internal_thermistor_counts
DateTime,Latitude,Longitude,Instrument_Serial,Reference_Counts,Signal_Counts,Corrected_Signal_raw_counts,Calculated_Beam_c_inverse_meters,Internal_thermistor_counts
2022-02-08T00:00:50,42.805,6.029,CST-1368DR,4913,6159,13388,0.616,551
2022-02-08T00:03:52,42.805,6.029,CST-1368DR,4913,6158,13384,0.617,551
2022-02-08T00:06:53,42.805,6.029,CST-1368DR,4913,6159,13386,0.616,551
2022-02-08T00:09:55,42.805,6.029,CST-1368DR,4913,6160,13388,0.616,551
2022-02-08T00:12:56,42.805,6.029,CST-1368DR,4913,6159,13387,0.616,551
2022-02-08T00:15:58,42.805,6.029,CST-1368DR,4913,6160,13388,0.616,551
2022-02-08T00:19:00,42.805,6.029,CST-1368DR,4913,6157,13383,0.617,551
2022-02-08T00:22:01,42.805,6.029,CST-1368DR,4913,6159,13386,0.616,551
2022-02-08T00:25:03,42.805,6.029,CST-1368DR,4913,6160,13389,0.615,551
2022-02-08T00:28:04,42.805,6.029,CST-1368DR,4913,6160,13389,0.615,550
2022-02-08T00:31:06,42.805,6.029,CST-1368DR,4913,6156,13380,0.618,551
2022-02-08T00:34:07,42.805,6.029,CST-1368DR,4913,6156,13381,0.618,551
2022-02-08T00:37:09,42.805,6.029,CST-1368DR,4913,6156,13380,0.618,551
2022-02-08T00:40:11,42.805,6.029,CST-1368DR,4913,6157,13383,0.617,551
2022-02-08T00:43:12,42.805,6.029,CST-1368DR,4913,6158,13384,0.617,551
2022-02-08T00:46:14,42.805,6.029,CST-1368DR,4913,6159,13387,0.616,551
2022-02-08T00:49:15,42.805,6.029,CST-1368DR,4913,6160,13388,0.616,551
2022-02-08T00:52:17,42.805,6.029,CST-1368DR,4913,6158,13384,0.617,551
2022-02-08T00:55:19,42.805,6.029,CST-1368DR,4913,6158,13384,0.617,551
2022-02-08T00:58:20,42.805,6.029,CST-1368DR,4913,6160,13389,0.615,551
2022-02-08T01:01:22,42.805,6.029,CST-1368DR,4913,6159,13386,0.616,551
2022-02-08T01:04:23,42.805,6.029,CST-1368DR,4913,6157,13383,0.617,551
2022-02-08T01:07:25,42.805,6.029,CST-1368DR,4913,6156,13381,0.618,551
2022-02-08T01:10:26,42.805,6.029,CST-1368DR,4913,6158,13384,0.617,551
2022-02-08T01:13:28,42.805,6.029,CST-1368DR,4913,6157,13382,0.618,551
2022-02-08T01:16:30,42.805,6.029,CST-1368DR,4913,6158,13385,0.617,551
2022-02-08T01:19:31,42.805,6.029,CST-1368DR,4913,6158,13386,0.616,551
2022-02-08T01:22:33,42.805,6.029,CST-1368DR,4912,6156,13383,0.617,551
2022-02-08T01:25:34,42.805,6.029,CST-1368DR,4913,6158,13384,0.617,551
2022-02-08T01:28:36,42.805,6.029,CST-1368DR,4913,6159,13387,0.616,551
2022-02-08T01:31:37,42.805,6.029,CST-1368DR,4913,6158,13386,0.616,551
2022-02-08T01:34:39,42.805,6.029,CST-1368DR,4913,6158,13385,0.617,551
2022-02-08T01:37:41,42.805,6.029,CST-1368DR,4913,6159,13386,0.616,551
2022-02-08T01:40:42,42.805,6.029,CST-1368DR,4913,6159,13388,0.616,551
2022-02-08T01:43:44,42.805,6.029,CST-1368DR,4913,6158,13386,0.616,551
2022-02-08T01:46:45,42.805,6.029,CST-1368DR,4913,6160,13388,0.616,551
2022-02-08T01:49:47,42.805,6.029,CST-1368DR,4913,6159,13387,0.616,551
2022-02-08T01:52:49,42.805,6.029,CST-1368DR,4913,6159,13387,0.616,551
2022-02-08T01:55:50,42.805,6.029,CST-1368DR,4913,6158,13386,0.616,551
2022-02-08T01:58:52,42.805,6.029,CST-1368DR,4913,6160,13388,0.616,551
2022-02-08T02:01:53,42.805,6.029,CST-1368DR,4913,6157,13383,0.617,551
2022-02-08T02:04:55,42.805,6.029,CST-1368DR,4913,6157,13383,0.617,551
2022-02-08T02:07:56,42.805,6.029,CST-1368DR,4913,6158,13386,0.616,551
2022-02-08T02:10:58,42.805,6.029,CST-1368DR,4913,6155,13378,0.619,551
2022-02-08T02:14:00,42.805,6.029,CST-1368DR,4913,6157,13382,0.618,551
2022-02-08T02:17:01,42.805,6.029,CST-1368DR,4913,6158,13386,0.616,551
2022-02-08T02:20:03,42.805,6.029,CST-1368DR,4913,6158,13385,0.617,551
2022-02-08T02:23:04,42.805,6.029,CST-1368DR,4913,6158,13385,0.617,551
2022-02-08T02:26:06,42.805,6.029,CST-1368DR,4913,6158,13386,0.616,551
2022-02-08T02:29:07,42.805,6.029,CST-1368DR,4913,6159,13386,0.616,551
2022-02-08T02:32:09,42.805,6.029,CST-1368DR,4912,6158,13387,0.616,551
2022-02-08T02:35:11,42.805,6.029,CST-1368DR,4912,6159,13389,0.615,551
2022-02-08T02:38:12,42.805,6.029,CST-1368DR,4913,6159,13388,0.616,551
2022-02-08T02:41:14,42.805,6.029,CST-1368DR,4913,6157,13382,0.618,551
2022-02-08T02:44:15,42.805,6.029,CST-1368DR,4912,6159,13389,0.615,551
2022-02-08T02:47:17,42.805,6.029,CST-1368DR,4912,6159,13389,0.615,551
2022-02-08T02:50:19,42.805,6.029,CST-1368DR,4912,6158,13388,0.616,551
2022-02-08T02:53:20,42.805,6.029,CST-1368DR,4913,6158,13384,0.617,551
2022-02-08T02:56:22,42.805,6.029,CST-1368DR,4913,6159,13386,0.616,551
2022-02-08T02:59:23,42.805,6.029,CST-1368DR,4913,6158,13384,0.617,551
2022-02-08T03:02:25,42.805,6.029,CST-1368DR,4912,6157,13385,0.617,551
2022-02-08T03:05:26,42.805,6.029,CST-1368DR,4913,6159,13386,0.616,551
2022-02-08T03:08:28,42.805,6.029,CST-1368DR,4913,6157,13382,0.618,551
2022-02-08T03:11:30,42.805,6.029,CST-1368DR,4913,6156,13381,0.618,551
2022-02-08T03:14:31,42.805,6.029,CST-1368DR,4913,6158,13385,0.617,551
2022-02-08T03:17:33,42.805,6.029,CST-1368DR,4912,6157,13386,0.616,551
2022-02-08T03:20:34,42.805,6.029,CST-1368DR,4913,6158,13384,0.617,551
2022-02-08T03:23:36,42.805,6.029,CST-1368DR,4913,6159,13387,0.616,551
2022-02-08T03:26:38,42.805,6.029,CST-1368DR,4913,6157,13383,0.617,551
2022-02-08T03:29:39,42.805,6.029,CST-1368DR,4913,6158,13385,0.617,551
2022-02-08T03:32:41,42.805,6.029,CST-1368DR,4912,6154,13379,0.618,551
2022-02-08T03:35:42,42.805,6.029,CST-1368DR,4913,6156,13381,0.618,551
2022-02-08T03:38:44,42.805,6.029,CST-1368DR,4913,6158,13384,0.617,551
2022-02-08T03:41:45,42.805,6.029,CST-1368DR,4913,6157,13383,0.617,551
2022-02-08T03:44:47,42.805,6.029,CST-1368DR,4913,6158,13384,0.617,551
2022-02-08T03:47:49,42.805,6.029,CST-1368DR,4913,6159,13387,0.616,551
2022-02-08T03:50:50,42.805,6.029,CST-1368DR,4912,6158,13387,0.616,551
2022-02-08T03:53:52,42.805,6.029,CST-1368DR,4913,6155,13379,0.618,551
2022-02-08T03:56:53,42.805,6.029,CST-1368DR,4913,6155,13379,0.618,551
2022-02-08T03:59:55,42.805,6.029,CST-1368DR,4913,6156,13381,0.618,551
2022-02-08T04:02:56,42.805,6.029,CST-1368DR,4913,6158,13385,0.617,551
2022-02-08T04:05:58,42.805,6.029,CST-1368DR,4913,6158,13384,0.617,551
2022-02-08T04:09:00,42.805,6.029,CST-1368DR,4912,6158,13388,0.616,551
2022-02-08T04:12:01,42.805,6.029,CST-1368DR,4912,6158,13388,0.616,551
2022-02-08T04:15:03,42.805,6.029,CST-1368DR,4912,6153,13376,0.619,551
2022-02-08T04:18:04,42.805,6.029,CST-1368DR,4912,6155,13381,0.618,551
2022-02-08T04:21:06,42.805,6.029,CST-1368DR,4912,6158,13387,0.616,551
2022-02-08T04:24:08,42.805,6.029,CST-1368DR,4912,6158,13387,0.616,551
2022-02-08T04:27:09,42.805,6.029,CST-1368DR,4912,6158,13388,0.616,551
2022-02-08T04:30:11,42.805,6.029,CST-1368DR,4913,6158,13385,0.617,551
2022-02-08T04:33:12,42.805,6.029,CST-1368DR,4912,6157,13384,0.617,551
2022-02-08T04:36:14,42.805,6.029,CST-1368DR,4913,6157,13383,0.617,551
2022-02-08T04:39:15,42.805,6.029,CST-1368DR,4913,6159,13387,0.616,551
2022-02-08T04:42:17,42.805,6.029,CST-1368DR,4912,6158,13387,0.616,551
2022-02-08T04:45:19,42.805,6.029,CST-1368DR,4912,6157,13386,0.616,551
2022-02-08T04:48:20,42.805,6.029,CST-1368DR,4912,6153,13376,0.619,551
2022-02-08T04:51:22,42.805,6.029,CST-1368DR,4912,6158,13387,0.616,551
2022-02-08T04:54:23,42.805,6.029,CST-1368DR,4912,6159,13389,0.615,551
2022-02-08T04:57:25,42.805,6.029,CST-1368DR,4912,6153,13377,0.619,551
2022-02-08T05:00:27,42.805,6.029,CST-1368DR,4912,6157,13386,0.616,551
2022-02-08T05:03:28,42.805,6.029,CST-1368DR,4912,6157,13385,0.617,551
2022-02-08T05:06:30,42.805,6.029,CST-1368DR,4912,6157,13384,0.617,551
2022-02-08T05:09:31,42.805,6.029,CST-1368DR,4912,6155,13380,0.618,551
2022-02-08T05:12:33,42.805,6.029,CST-1368DR,4913,6158,13384,0.617,551
2022-02-08T05:15:34,42.805,6.029,CST-1368DR,4912,6157,13386,0.616,551
2022-02-08T05:18:36,42.805,6.029,CST-1368DR,4912,6158,13388,0.616,551
2022-02-08T05:21:38,42.805,6.029,CST-1368DR,4912,6158,13388,0.616,551
2022-02-08T05:24:39,42.805,6.029,CST-1368DR,4912,6158,13387,0.616,551
2022-02-08T05:27:41,42.805,6.029,CST-1368DR,4912,6157,13385,0.617,551
2022-02-08T05:30:42,42.805,6.029,CST-1368DR,4912,6157,13386,0.616,551
2022-02-08T05:33:44,42.805,6.029,CST-1368DR,4912,6158,13388,0.616,551
2022-02-08T05:36:45,42.805,6.029,CST-1368DR,4913,6157,13383,0.617,551
2022-02-08T05:39:47,42.805,6.029,CST-1368DR,4912,6158,13387,0.616,551
2022-02-08T05:42:49,42.805,6.029,CST-1368DR,4912,6158,13387,0.616,551
2022-02-08T05:45:50,42.805,6.029,CST-1368DR,4912,6157,13384,0.617,551
2022-02-08T05:48:52,42.805,6.029,CST-1368DR,4912,6158,13387,0.616,551
2022-02-08T05:51:53,42.805,6.029,CST-1368DR,4913,6158,13384,0.617,551
2022-02-08T05:54:55,42.805,6.029,CST-1368DR,4912,6158,13388,0.616,551
2022-02-08T05:57:57,42.805,6.029,CST-1368DR,4912,6157,13385,0.617,551
2022-02-08T06:00:58,42.805,6.029,CST-1368DR,4912,6158,13387,0.616,551
2022-02-08T06:04:00,42.805,6.029,CST-1368DR,4912,6158,13387,0.616,551
2022-02-08T06:07:01,42.805,6.029,CST-1368DR,4912,6157,13385,0.617,551
2022-02-08T06:10:03,42.805,6.029,CST-1368DR,4912,6158,13387,0.616,551
2022-02-08T06:13:04,42.805,6.029,CST-1368DR,4912,6157,13385,0.617,551
2022-02-08T06:16:06,42.805,6.029,CST-1368DR,4912,6157,13385,0.617,551
2022-02-08T06:19:08,42.805,6.029,CST-1368DR,4912,6158,13388,0.616,551
2022-02-08T06:22:09,42.805,6.029,CST-1368DR,4912,6158,13387,0.616,551
2022-02-08T06:25:11,42.805,6.029,CST-1368DR,4912,6158,13387,0.616,551
2022-02-08T06:28:12,42.805,6.029,CST-1368DR,4912,6156,13383,0.617,551
2022-02-08T06:31:14,42.805,6.029,CST-1368DR,4912,6157,13384,0.617,551
2022-02-08T06:34:16,42.805,6.029,CST-1368DR,4912,6158,13387,0.616,551
2022-02-08T06:37:17,42.805,6.029,CST-1368DR,4912,6156,13383,0.617,551
2022-02-08T06:40:19,42.805,6.029,CST-1368DR,4912,6158,13387,0.616,551
2022-02-08T06:43:20,42.805,6.029,CST-1368DR,4912,6157,13385,0.617,551
2022-02-08T06:46:22,42.805,6.029,CST-1368DR,4912,6156,13383,0.617,551
2022-02-08T06:49:23,42.805,6.029,CST-1368DR,4912,6157,13385,0.617,551
2022-02-08T06:52:25,42.805,6.029,CST-1368DR,4912,6157,13385,0.617,551
2022-02-08T06:55:27,42.805,6.029,CST-1368DR,4912,6152,13375,0.620,551
2022-02-08T06:58:28,42.805,6.029,CST-1368DR,4912,6157,13385,0.617,551
2022-02-08T07:01:30,42.805,6.029,CST-1368DR,4912,6158,13387,0.616,551
2022-02-08T07:04:31,42.805,6.029,CST-1368DR,4912,6150,13369,0.621,551
2022-02-08T07:07:33,42.805,6.029,CST-1368DR,4912,6156,13384,0.617,551
2022-02-08T07:10:34,42.805,6.029,CST-1368DR,4912,6157,13384,0.617,551
2022-02-08T07:13:36,42.805,6.029,CST-1368DR,4912,6157,13384,0.617,551
2022-02-08T07:16:38,42.805,6.029,CST-1368DR,4912,6157,13385,0.617,551
2022-02-08T07:19:39,42.805,6.029,CST-1368DR,4912,6156,13384,0.617,551
2022-02-08T07:22:41,42.805,6.029,CST-1368DR,4912,6157,13386,0.616,551
2022-02-08T07:25:42,42.805,6.029,CST-1368DR,4912,6157,13384,0.617,551
2022-02-08T07:28:44,42.805,6.029,CST-1368DR,4912,6156,13383,0.617,551
2022-02-08T07:31:46,42.805,6.029,CST-1368DR,4912,6157,13384,0.617,551
2022-02-08T07:34:47,42.805,6.029,CST-1368DR,4912,6157,13385,0.617,551
2022-02-08T07:37:49,42.805,6.029,CST-1368DR,4912,6158,13387,0.616,551
2022-02-08T07:40:50,42.805,6.029,CST-1368DR,4912,6157,13386,0.616,550
2022-02-08T07:43:52,42.805,6.029,CST-1368DR,4912,6157,13385,0.617,551
2022-02-08T07:46:53,42.805,6.029,CST-1368DR,4912,6157,13384,0.617,551
2022-02-08T07:49:55,42.805,6.029,CST-1368DR,4912,6157,13385,0.617,551
2022-02-08T07:52:57,42.805,6.029,CST-1368DR,4912,6157,13384,0.617,551
2022-02-08T07:55:58,42.805,6.029,CST-1368DR,4912,6156,13382,0.618,551
2022-02-08T07:59:00,42.805,6.029,CST-1368DR,4912,6156,13382,0.618,551
2022-02-08T08:02:01,42.805,6.029,CST-1368DR,4912,6157,13384,0.617,551
2022-02-08T08:05:03,42.805,6.029,CST-1368DR,4912,6156,13383,0.617,551
2022-02-08T08:08:05,42.805,6.029,CST-1368DR,4912,6155,13380,0.618,551
2022-02-08T08:11:06,42.805,6.029,CST-1368DR,4912,6156,13384,0.617,551
2022-02-08T08:14:08,42.805,6.029,CST-1368DR,4912,6157,13385,0.617,550
2022-02-08T08:17:09,42.805,6.029,CST-1368DR,4912,6155,13381,0.618,551
2022-02-08T08:20:11,42.805,6.029,CST-1368DR,4912,6157,13385,0.617,551
2022-02-08T08:23:12,42.805,6.029,CST-1368DR,4912,6157,13384,0.617,551
2022-02-08T08:26:14,42.805,6.029,CST-1368DR,4912,6156,13384,0.617,551
2022-02-08T08:29:16,42.805,6.029,CST-1368DR,4912,6156,13384,0.617,551
2022-02-08T08:32:17,42.805,6.029,CST-1368DR,4912,6156,13383,0.617,551
2022-02-08T08:35:19,42.805,6.029,CST-1368DR,4912,6157,13384,0.617,551
2022-02-08T08:38:20,42.805,6.029,CST-1368DR,4912,6156,13384,0.617,551
2022-02-08T08:41:22,42.805,6.029,CST-1368DR,4912,6156,13382,0.618,551
2022-02-08T08:44:23,42.805,6.029,CST-1368DR,4912,6157,13385,0.617,551
2022-02-08T08:47:25,42.805,6.029,CST-1368DR,4912,6157,13384,0.617,551
2022-02-08T08:50:27,42.805,6.029,CST-1368DR,4912,6155,13380,0.618,551
2022-02-08T08:53:28,42.805,6.029,CST-1368DR,4912,6157,13384,0.617,551
2022-02-08T08:56:30,42.805,6.029,CST-1368DR,4912,6154,13378,0.619,551
2022-02-08T08:59:31,42.805,6.029,CST-1368DR,4912,6157,13385,0.617,551
2022-02-08T09:02:33,42.805,6.029,CST-1368DR,4912,6157,13385,0.617,551
2022-02-08T09:05:35,42.805,6.029,CST-1368DR,4912,6157,13385,0.617,551
2022-02-08T09:08:36,42.805,6.029,CST-1368DR,4912,6157,13385,0.617,551
2022-02-08T09:11:38,42.805,6.029,CST-1368DR,4912,6155,13380,0.618,551
2022-02-08T09:14:39,42.805,6.029,CST-1368DR,4912,6157,13385,0.617,551
2022-02-08T09:17:41,42.805,6.029,CST-1368DR,4911,6156,13386,0.616,550
2022-02-08T09:20:42,42.805,6.029,CST-1368DR,4911,6157,13387,0.616,550
2022-02-08T09:23:44,42.805,6.029,CST-1368DR,4911,6156,13385,0.617,551
2022-02-08T09:26:46,42.805,6.029,CST-1368DR,4911,6154,13382,0.618,551
2022-02-08T09:29:47,42.805,6.029,CST-1368DR,4911,6156,13385,0.617,551
2022-02-08T09:32:49,42.805,6.029,CST-1368DR,4912,6156,13382,0.618,551
2022-02-08T09:35:50,42.805,6.029,CST-1368DR,4912,6156,13382,0.618,551
2022-02-08T09:38:52,42.805,6.029,CST-1368DR,4912,6157,13384,0.617,551
2022-02-08T09:41:54,42.805,6.029,CST-1368DR,4912,6156,13383,0.617,551
2022-02-08T09:44:55,42.805,6.029,CST-1368DR,4912,6156,13384,0.617,551
2022-02-08T09:47:57,42.805,6.029,CST-1368DR,4912,6156,13382,0.618,551
2022-02-08T09:50:58,42.805,6.029,CST-1368DR,4912,6156,13384,0.617,551
2022-02-08T09:54:00,42.805,6.029,CST-1368DR,4912,6156,13383,0.617,551
2022-02-08T09:57:01,42.805,6.029,CST-1368DR,4912,6156,13384,0.617,551
2022-02-08T10:00:03,42.805,6.029,CST-1368DR,4912,6157,13384,0.617,551
2022-02-08T10:03:05,42.805,6.029,CST-1368DR,4912,6156,13382,0.618,551
2022-02-08T10:06:06,42.805,6.029,CST-1368DR,4912,6156,13383,0.617,551
2022-02-08T10:09:08,42.805,6.029,CST-1368DR,4912,6153,13377,0.619,551
2022-02-08T10:12:09,42.805,6.029,CST-1368DR,4912,6155,13381,0.618,551
2022-02-08T10:15:11,42.805,6.029,CST-1368DR,4912,6156,13382,0.618,551
2022-02-08T10:18:12,42.805,6.029,CST-1368DR,4912,6153,13377,0.619,551
2022-02-08T10:21:14,42.805,6.029,CST-1368DR,4912,6152,13375,0.620,551
2022-02-08T10:24:16,42.805,6.029,CST-1368DR,4912,6154,13378,0.619,551
2022-02-08T10:27:17,42.805,6.029,CST-1368DR,4912,6155,13381,0.618,550
2022-02-08T10:30:19,42.805,6.029,CST-1368DR,4912,6154,13379,0.618,551
2022-02-08T10:33:20,42.805,6.029,CST-1368DR,4912,6153,13377,0.619,551
2022-02-08T10:36:22,42.805,6.029,CST-1368DR,4912,6152,13374,0.620,551
2022-02-08T10:39:24,42.805,6.029,CST-1368DR,4912,6152,13374,0.620,551
2022-02-08T10:42:25,42.805,6.029,CST-1368DR,4912,6152,13374,0.620,551
2022-02-08T10:45:27,42.805,6.029,CST-1368DR,4912,6154,13378,0.619,551
2022-02-08T10:48:28,42.805,6.029,CST-1368DR,4912,6151,13371,0.621,551
2022-02-08T10:51:30,42.805,6.029,CST-1368DR,4912,6155,13381,0.618,551
2022-02-08T10:54:31,42.805,6.029,CST-1368DR,4912,6154,13378,0.619,551
2022-02-08T10:57:33,42.805,6.029,CST-1368DR,4912,6153,13377,0.619,551
2022-02-08T11:00:35,42.805,6.029,CST-1368DR,4912,6155,13381,0.618,551
2022-02-08T11:03:36,42.805,6.029,CST-1368DR,4912,6155,13380,0.618,551
2022-02-08T11:06:38,42.805,6.029,CST-1368DR,4912,6154,13379,0.618,551
2022-02-08T11:09:39,42.805,6.029,CST-1368DR,4912,6154,13378,0.619,551
2022-02-08T11:12:41,42.805,6.029,CST-1368DR,4912,6155,13381,0.618,551
2022-02-08T11:15:42,42.805,6.029,CST-1368DR,4912,6154,13378,0.619,551
2022-02-08T11:18:44,42.805,6.029,CST-1368DR,4912,6154,13379,0.618,551
2022-02-08T11:21:46,42.805,6.029,CST-1368DR,4912,6155,13380,0.618,551
2022-02-08T11:24:47,42.805,6.029,CST-1368DR,4912,6154,13378,0.619,551
2022-02-08T11:27:49,42.805,6.029,CST-1368DR,4912,6154,13378,0.619,551
2022-02-08T11:30:50,42.805,6.029,CST-1368DR,4912,6154,13379,0.618,550
2022-02-08T11:33:52,42.805,6.029,CST-1368DR,4912,6153,13376,0.619,551
2022-02-08T11:36:54,42.805,6.029,CST-1368DR,4912,6154,13378,0.619,551
2022-02-08T11:39:55,42.805,6.029,CST-1368DR,4912,6155,13380,0.618,551
2022-02-08T11:42:57,42.805,6.029,CST-1368DR,4912,6153,13377,0.619,551
2022-02-08T11:45:58,42.805,6.029,CST-1368DR,4912,6153,13377,0.619,551
2022-02-08T11:49:00,42.805,6.029,CST-1368DR,4912,6153,13377,0.619,551
2022-02-08T11:52:01,42.805,6.029,CST-1368DR,4912,6153,13377,0.619,551
2022-02-08T11:55:03,42.805,6.029,CST-1368DR,4912,6153,13377,0.619,551
2022-02-08T11:58:05,42.805,6.029,CST-1368DR,4912,6154,13379,0.618,551
2022-02-08T12:01:06,42.805,6.029,CST-1368DR,4912,6154,13378,0.619,551
2022-02-08T12:04:08,42.805,6.029,CST-1368DR,4912,6154,13378,0.619,551
2022-02-08T12:07:09,42.805,6.029,CST-1368DR,4912,6153,13377,0.619,551
2022-02-08T12:10:11,42.805,6.029,CST-1368DR,4912,6154,13378,0.619,551
2022-02-08T12:13:13,42.805,6.029,CST-1368DR,4912,6152,13375,0.620,551
2022-02-08T12:16:14,42.805,6.029,CST-1368DR,4912,6154,13378,0.619,551
2022-02-08T12:19:16,42.805,6.029,CST-1368DR,4912,6154,13378,0.619,551
2022-02-08T12:22:17,42.805,6.029,CST-1368DR,4912,6154,13379,0.618,551
2022-02-08T12:25:19,42.805,6.029,CST-1368DR,4912,6153,13376,0.619,550
2022-02-08T12:28:20,42.805,6.029,CST-1368DR,4912,6154,13378,0.619,551
2022-02-08T12:31:22,42.805,6.029,CST-1368DR,4912,6154,13379,0.618,551
2022-02-08T12:34:24,42.805,6.029,CST-1368DR,4912,6154,13379,0.618,551
2022-02-08T12:37:25,42.805,6.029,CST-1368DR,4912,6154,13378,0.619,551
2022-02-08T12:40:27,42.805,6.029,CST-1368DR,4912,6154,13379,0.618,551
2022-02-08T12:43:28,42.805,6.029,CST-1368DR,4912,6153,13377,0.619,551
2022-02-08T12:46:30,42.805,6.029,CST-1368DR,4912,6154,13379,0.618,551
2022-02-08T12:49:31,42.805,6.029,CST-1368DR,4912,6153,13377,0.619,550
2022-02-08T12:52:33,42.805,6.029,CST-1368DR,4912,6153,13376,0.619,551
2022-02-08T12:55:35,42.805,6.029,CST-1368DR,4912,6154,13378,0.619,551
2022-02-08T12:58:36,42.805,6.029,CST-1368DR,4912,6154,13378,0.619,551
2022-02-08T13:01:38,42.805,6.029,CST-1368DR,4912,6154,13378,0.619,551
2022-02-08T13:04:39,42.805,6.029,CST-1368DR,4912,6154,13378,0.619,551
2022-02-08T13:07:41,42.805,6.029,CST-1368DR,4912,6154,13378,0.619,551
2022-02-08T13:10:43,42.805,6.029,CST-1368DR,4912,6153,13377,0.619,551
2022-02-08T13:13:44,42.805,6.029,CST-1368DR,4912,6153,13377,0.619,551
2022-02-08T13:16:46,42.805,6.029,CST-1368DR,4912,6154,13378,0.619,551
2022-02-08T13:19:47,42.805,6.029,CST-1368DR,4912,6154,13378,0.619,551
2022-02-08T13:22:49,42.805,6.029,CST-1368DR,4912,6154,13378,0.619,551
2022-02-08T13:25:50,42.805,6.029,CST-1368DR,4912,6153,13377,0.619,551
2022-02-08T13:28:52,42.805,6.029,CST-1368DR,4912,6154,13378,0.619,551
2022-02-08T13:31:54,42.805,6.029,CST-1368DR,4912,6154,13378,0.619,551
2022-02-08T13:34:55,42.805,6.029,CST-1368DR,4912,6154,13378,0.619,551
2022-02-08T13:37:57,42.805,6.029,CST-1368DR,4912,6154,13378,0.619,551
2022-02-08T13:40:58,42.805,6.029,CST-1368DR,4912,6154,13378,0.619,551
2022-02-08T13:44:00,42.805,6.029,CST-1368DR,4912,6154,13378,0.619,551
2022-02-08T13:47:01,42.805,6.029,CST-1368DR,4912,6154,13378,0.619,551
2022-02-08T13:50:03,42.805,6.029,CST-1368DR,4912,6154,13378,0.619,551
2022-02-08T13:53:05,42.805,6.029,CST-1368DR,4912,6154,13378,0.619,551
2022-02-08T13:56:06,42.805,6.029,CST-1368DR,4912,6154,13379,0.618,551
2022-02-08T13:59:08,42.805,6.029,CST-1368DR,4912,6154,13378,0.619,551
2022-02-08T14:02:09,42.805,6.029,CST-1368DR,4912,6153,13376,0.619,551
2022-02-08T14:05:11,42.805,6.029,CST-1368DR,4912,6153,13377,0.619,551
2022-02-08T14:08:13,42.805,6.029,CST-1368DR,4912,6153,13377,0.619,551
2022-02-08T14:11:14,42.805,6.029,CST-1368DR,4912,6153,13377,0.619,551
2022-02-08T14:14:16,42.805,6.029,CST-1368DR,4912,6154,13378,0.619,551
2022-02-08T14:17:17,42.805,6.029,CST-1368DR,4912,6151,13373,0.620,551
2022-02-08T14:20:19,42.805,6.029,CST-1368DR,4912,6152,13374,0.620,551
2022-02-08T14:23:20,42.805,6.029,CST-1368DR,4912,6153,13377,0.619,551
2022-02-08T14:26:22,42.805,6.029,CST-1368DR,4912,6154,13379,0.618,551
2022-02-08T14:29:24,42.805,6.029,CST-1368DR,4912,6153,13377,0.619,551
2022-02-08T14:32:25,42.805,6.029,CST-1368DR,4912,6154,13378,0.619,551
2022-02-08T14:35:27,42.805,6.029,CST-1368DR,4912,6153,13377,0.619,551
2022-02-08T14:38:28,42.805,6.029,CST-1368DR,4912,6154,13378,0.619,551
2022-02-08T14:41:30,42.805,6.029,CST-1368DR,4912,6154,13378,0.619,551
2022-02-08T14:44:32,42.805,6.029,CST-1368DR,4912,6154,13379,0.618,551
2022-02-08T14:47:33,42.805,6.029,CST-1368DR,4912,6147,13363,0.623,551
2022-02-08T14:50:35,42.805,6.029,CST-1368DR,4912,6152,13374,0.620,551
2022-02-08T14:53:36,42.805,6.029,CST-1368DR,4912,6153,13376,0.619,551
2022-02-08T14:56:38,42.805,6.029,CST-1368DR,4912,6153,13377,0.619,551
2022-02-08T14:59:39,42.805,6.029,CST-1368DR,4912,6154,13379,0.618,551
2022-02-08T15:02:41,42.805,6.029,CST-1368DR,4912,6153,13377,0.619,551
2022-02-08T15:05:43,42.805,6.029,CST-1368DR,4912,6154,13378,0.619,551
2022-02-08T15:08:44,42.805,6.029,CST-1368DR,4912,6154,13378,0.619,551
2022-02-08T15:11:46,42.805,6.029,CST-1368DR,4912,6153,13377,0.619,551
2022-02-08T15:14:47,42.805,6.029,CST-1368DR,4912,6153,13377,0.619,551
2022-02-08T15:17:49,42.805,6.029,CST-1368DR,4912,6154,13378,0.619,551
2022-02-08T15:20:50,42.805,6.029,CST-1368DR,4912,6153,13376,0.619,551
2022-02-08T15:23:52,42.805,6.029,CST-1368DR,4912,6153,13377,0.619,551
2022-02-08T15:26:54,42.805,6.029,CST-1368DR,4912,6151,13373,0.620,551
2022-02-08T15:29:55,42.805,6.029,CST-1368DR,4912,6152,13374,0.620,551
2022-02-08T15:32:57,42.805,6.029,CST-1368DR,4912,6154,13378,0.619,551
2022-02-08T15:35:58,42.805,6.029,CST-1368DR,4912,6154,13378,0.619,551
2022-02-08T15:39:00,42.805,6.029,CST-1368DR,4912,6154,13378,0.619,551
2022-02-08T15:42:02,42.805,6.029,CST-1368DR,4911,6153,13379,0.618,551
2022-02-08T15:45:03,42.805,6.029,CST-1368DR,4912,6153,13376,0.619,551
2022-02-08T15:48:05,42.805,6.029,CST-1368DR,4912,6154,13378,0.619,551
2022-02-08T15:51:06,42.805,6.029,CST-1368DR,4912,6153,13377,0.619,551
2022-02-08T15:54:08,42.805,6.029,CST-1368DR,4912,6154,13378,0.619,551
2022-02-08T15:57:09,42.805,6.029,CST-1368DR,4912,6154,13379,0.618,550
2022-02-08T16:00:11,42.805,6.029,CST-1368DR,4912,6152,13375,0.620,551
2022-02-08T16:03:13,42.805,6.029,CST-1368DR,4912,6154,13378,0.619,551
2022-02-08T16:06:14,42.805,6.029,CST-1368DR,4912,6153,13376,0.619,551
2022-02-08T16:09:16,42.805,6.029,CST-1368DR,4912,6153,13376,0.619,551
2022-02-08T16:12:17,42.805,6.029,CST-1368DR,4912,6153,13377,0.619,551
2022-02-08T16:15:19,42.805,6.029,CST-1368DR,4911,6149,13371,0.621,551
2022-02-08T16:18:21,42.805,6.029,CST-1368DR,4911,6153,13379,0.618,551
2022-02-08T16:21:22,42.805,6.029,CST-1368DR,4911,6153,13380,0.618,551
2022-02-08T16:24:24,42.805,6.029,CST-1368DR,4911,6153,13380,0.618,551
2022-02-08T16:27:25,42.805,6.029,CST-1368DR,4912,6153,13377,0.619,551
2022-02-08T16:30:27,42.805,6.029,CST-1368DR,4912,6153,13376,0.619,551
2022-02-08T16:33:28,42.805,6.029,CST-1368DR,4912,6153,13376,0.619,550
2022-02-08T16:36:30,42.805,6.029,CST-1368DR,4912,6153,13376,0.619,551
2022-02-08T16:39:32,42.805,6.029,CST-1368DR,4911,6151,13374,0.620,551
2022-02-08T16:42:33,42.805,6.029,CST-1368DR,4911,6153,13378,0.619,551
2022-02-08T16:45:35,42.805,6.029,CST-1368DR,4911,6153,13380,0.618,551
2022-02-08T16:48:36,42.805,6.029,CST-1368DR,4911,6152,13376,0.619,551
2022-02-08T16:51:38,42.805,6.029,CST-1368DR,4912,6153,13377,0.619,551